This is the latest recevied weather packets stored in our database for station/object IZ1UQG-N2. If no packets are shown the sender has not sent any weather packets the latest 10 day(s).
| Time | Temp. | Humidity | Pressure | Rain* | Wind** | Luminosity | Snow |
|---|---|---|---|---|---|---|---|
| 1777739826 | 22.22° C | 43% | 1017.7 hPa | 0 mm | - | 62 W/m² | - |
| 1777739824 | 22.22° C | 43% | 1017.6 hPa | 0 mm | - | 58 W/m² | - |
| 1777739776 | 22.22° C | 43% | 1017.7 hPa | 0 mm | - | 63 W/m² | - |
| 1777739765 | 22.22° C | 43% | 1017.7 hPa | 0 mm | - | 60 W/m² | - |
| 1777739711 | 22.22° C | 43% | 1017.7 hPa | 0 mm | - | 65 W/m² | - |
| 1777739704 | 22.22° C | 43% | 1017.7 hPa | 0 mm | - | 60 W/m² | - |
| 1777739701 | 22.22° C | 43% | 1017.7 hPa | 0 mm | - | 62 W/m² | - |
| 1777739643 | 22.22° C | 43% | 1017.7 hPa | 0 mm | - | 62 W/m² | - |
| 1777739595 | 22.22° C | 43% | 1017.9 hPa | 0 mm | - | 69 W/m² | - |
| 1777739590 | 22.22° C | 43% | 1017.9 hPa | 0 mm | - | 69 W/m² | - |
| 1777739585 | 22.22° C | 43% | 1017.7 hPa | 0 mm | - | 62 W/m² | - |
| 1777739530 | 22.22° C | 42% | 1017.8 hPa | 0 mm | - | 70 W/m² | - |
| 1777739524 | 22.22° C | 43% | 1017.7 hPa | 0 mm | - | 63 W/m² | - |
| 1777739522 | 22.22° C | 43% | 1017.7 hPa | 0 mm | - | 63 W/m² | - |
| 1777739475 | 22.22° C | 42% | 1017.8 hPa | 0 mm | - | 77 W/m² | - |
| 1777739464 | 22.22° C | 43% | 1017.7 hPa | 0 mm | - | 65 W/m² | - |
| 1777739415 | 22.22° C | 42% | 1017.8 hPa | 0 mm | - | 77 W/m² | - |
| 1777739410 | 22.22° C | 42% | 1017.8 hPa | 0 mm | - | 77 W/m² | - |
| 1777739404 | 22.22° C | 43% | 1017.8 hPa | 0 mm | - | 67 W/m² | - |
| 1777739355 | 22.22° C | 42% | 1017.8 hPa | 0 mm | - | 120 W/m² | - |
| 1777739344 | 22.22° C | 43% | 1017.9 hPa | 0 mm | - | 69 W/m² | - |
| 1777739343 | 22.22° C | 43% | 1017.9 hPa | 0 mm | - | 69 W/m² | - |
| 1777739284 | 22.22° C | 42% | 1017.8 hPa | 0 mm | - | 70 W/m² | - |
| 1777739235 | 22.78° C | 42% | 1017.7 hPa | 0 mm | - | 243 W/m² | - |
| 1777739224 | 22.22° C | 42% | 1017.8 hPa | 0 mm | - | 77 W/m² | - |
* Rain latest hour (hover to see other rain measurements)
** Current wind speed in m/s (hover to see current wind gust speed)